YM2KV-13 Weather Reports


Display with metric or nautical units.
time (UTC)temp
F
wind
direction
speed
MPH
gust
MPH
rain 1hr
in
rain 24hr
in
rain mn
in
humidity
%
barometer
mb
20260504045945 46 0.0 0.0 0.00 0.00 0.00 89 1019.3
20260504044945 46 0.0 0.0 0.00 0.00 0.00 90 1019.2
20260504043945 47 0.0 0.0 0.00 0.00 0.00 92 1019.2
20260504042945 47 0.0 0.0 0.00 0.00 0.00 90 1019.1
20260504041945 47 0.0 0.0 0.00 0.00 0.00 91 1019.1
20260504040945 47 0.0 0.0 0.00 0.00 0.00 92 1019.0
20260504035945 47 0.0 0.0 0.00 0.00 0.00 91 1019.0
20260504034945 47 0.0 0.0 0.00 0.00 0.00 91 1019.0
20260504033945 47 0.0 0.0 0.00 0.00 0.00 91 1019.0
20260504032945 47 0.0 0.0 0.00 0.00 0.00 91 1018.8
20260504031945 47 0.0 0.0 0.00 0.00 0.00 90 1018.7
20260504030945 47 0.0 0.0 0.00 0.00 0.00 92 1018.6
20260504025945 47 0.0 0.0 0.00 0.00 0.00 93 1018.5
20260504024945 47 0.0 0.0 0.00 0.00 0.00 92 1018.5
20260504023945 47 0.0 0.0 0.00 0.00 0.00 92 1018.5
20260504022945 47 0.0 0.0 0.00 0.00 0.00 93 1018.3
20260504021945 47 0.0 0.0 0.00 0.00 0.00 92 1018.3
20260504020945 47 0.0 0.0 0.00 0.00 0.00 93 1018.4
20260504015945 47 0.0 0.0 0.00 0.00 0.00 93 1018.3
20260504014945 47 0.0 0.0 0.00 0.00 0.00 93 1018.3
20260504013945 47 0.0 0.0 0.00 0.00 0.00 92 1018.5
20260504012945 47 0.0 0.0 0.00 0.00 0.00 92 1018.5
20260504011945 48 0.0 0.0 0.00 0.00 0.00 93 1018.5
20260504010945 48 0.0 0.0 0.00 0.00 0.00 92 1018.6
20260504005945 48 0.0 0.0 0.00 0.00 0.00 93 1018.6
20260504004945 48 0.0 0.0 0.00 0.00 0.00 93 1018.6
20260504003945 48 0.0 0.0 0.00 0.00 0.00 92 1018.6
20260504002945 48 0.0 0.0 0.00 0.00 0.00 92 1018.6
20260504001945 48 0.0 0.0 0.00 0.00 0.00 92 1018.7
20260504000945 48 0.0 0.0 0.00 0.00 0.00 92 1018.7
20260503235945 48 0.0 0.0 0.00 0.00 0.00 92 1018.8
20260503234945 48 0.0 0.0 0.00 0.00 0.00 91 1018.8
20260503233945 48 0.0 0.0 0.00 0.00 0.00 91 1019.0
20260503232945 48 0.0 0.0 0.00 0.00 0.00 92 1018.9
20260503231945 48 0.0 0.0 0.00 0.00 0.00 92 1019.0
20260503230945 48 0.0 0.0 0.00 0.00 0.00 91 1019.0
20260503225945 48 0.0 0.0 0.00 0.00 0.00 90 1019.1
20260503224945 48 0.0 0.0 0.00 0.00 0.00 89 1019.1
20260503223945 48 0.0 0.0 0.00 0.00 0.00 89 1019.1
20260503222945 48 0.0 0.0 0.00 0.00 0.00 88 1019.3
20260503221945 48 0.0 0.0 0.00 0.00 0.00 87 1019.4
20260503220945 48 0.0 0.0 0.00 0.00 0.00 87 1019.5
20260503215945 48 0.0 0.0 0.00 0.00 0.00 87 1019.5
20260503214945 48 0.0 0.0 0.00 0.00 0.00 88 1019.7
20260503213944 48 0.0 0.0 0.00 0.00 0.00 89 1019.6
20260503212944 48 0.0 0.0 0.00 0.00 0.00 88 1019.8
20260503211944 48 0.0 0.0 0.00 0.00 0.00 88 1019.9
20260503210944 48 0.0 0.0 0.00 0.00 0.00 87 1019.8
20260503205944 48 0.0 0.0 0.00 0.00 0.00 87 1019.8
20260503204944 48 0.0 0.0 0.00 0.00 0.00 87 1019.9
20260503203944 48 0.0 0.0 0.00 0.00 0.00 87 1020.0
20260503202944 49 0.0 0.0 0.00 0.00 0.00 87 1020.0
20260503201944 49 0.0 0.0 0.00 0.00 0.00 86 1020.1
20260503200944 49 0.0 0.0 0.00 0.00 0.00 86 1020.1
20260503195944 49 0.0 0.0 0.00 0.00 0.00 86 1020.1
20260503194944 49 0.0 0.0 0.00 0.00 0.00 86 1020.2
20260503193944 49 0.0 0.0 0.00 0.00 0.00 85 1020.4
20260503192944 49 0.0 0.0 0.00 0.00 0.00 83 1020.6
20260503191944 49 0.0 0.0 0.00 0.00 0.00 83 1020.6
20260503190944 49 0.0 0.0 0.00 0.00 0.00 83 1020.5
20260503185944 49 0.0 0.0 0.00 0.00 0.00 81 1020.7
20260503184944 50 0.0 0.0 0.00 0.00 0.00 81 1020.7
20260503183944 50 0.0 0.0 0.00 0.00 0.00 79 1020.8
20260503182944 50 0.0 0.0 0.00 0.00 0.00 79 1020.9
20260503181944 50 0.0 0.0 0.00 0.00 0.00 78 1020.9
20260503180944 50 0.0 0.0 0.00 0.00 0.00 77 1020.9
20260503175944 50 0.0 0.0 0.00 0.00 0.00 78 1020.9
20260503174944 50 0.0 0.0 0.00 0.00 0.00 77 1020.8
20260503173944 50 0.0 0.0 0.00 0.00 0.00 77 1020.7
20260503172944 50 0.0 0.0 0.00 0.00 0.00 77 1020.8
20260503171944 50 0.0 0.0 0.00 0.00 0.00 77 1020.9
20260503170944 50 0.0 0.0 0.00 0.00 0.00 77 1020.9
20260503150944 51 0.0 0.0 0.00 0.00 0.00 78 1021.6
20260503130944 54 0.0 0.0 0.00 0.00 0.00 68 1021.9
20260503080943 57 0.0 0.0 0.00 0.00 0.00 59 1024.2
20260503072943 55 0.0 0.0 0.00 0.00 0.00 62 1024.5